Погода в Кемерове

Россия / Кемеровская область (Кузбасс)     55°21′17″N   86°05′14″E
темп.,
°C
ветер,
м/с
пор.,
м/с
влажн.,
%
обл.,
%
осадки,
мм/ч
давл.,
гПа
погр.,
м
14 мая, пт
пт1401:00+11сз376760 1.3 1013117
04:00+8ссз488768 0.0 1014173
07:00+10с487864 0.0 1016383
10:00+13ссз574735 0.0 10171002
13:00+16сз774392 0.0 10181891
16:00+15сз7839100 0.0 10191534
19:00+14сз5634100 0.0 10201467
22:00+10сз3444100 0.0 102286
15 мая, сб
сб1501:00+10з2440100 0.0 1023119
04:00+10юз3744100 0.0 1022209
07:00+10юз5114884 0.0 1022362
10:00+14зюз71140100 0.0 1022722
13:00+18зюз8113397 0.0 10201073
16:00+19зюз81245100 0.0 10191088
19:00+17юз5115056 0.0 10181026
22:00+13ююз41157100 0.0 1017219
16 мая, вс
вс1601:00+14юз3105684 0.0 1015253
04:00+13юз4106479 0.1 1014224
07:00+13юз387383 0.7 1014242
10:00+19юз575392 0.3 1012709
13:00+24зюз6104159 0.3 10101832
16:00+25з81340100 0.0 10082643
19:00+20ссз6116677 0.9 10091048
22:00+15ссв467997 0.0 1012452
17 мая, пн
пн1701:00+10ссв35915 0.0 1014151
04:00+12з119689 0.2 101111
07:00+15зюз51387100 0.2 1010510
10:00+20з81363100 0.2 10081140
13:00+22зсз81349100 0.3 10082121
16:00+19ссз9125812 0.0 10101281
19:00+15с586280 0.0 10131253
22:00+10ссв36755 0.0 1015202
18 мая, вт
вт1801:00+7всв3583100 0.0 1016140
04:00+7всв1183100 0.0 101549
07:00+7вюв1285100 1.0 1014150
10:00+7в3492100 3.1 1012247
13:00+8св4689100 5.7 1011469
16:00+7всв5791100 7.0 1010404
19:00+9св697733 7.1 10101000
22:00+6св38808 0.0 1012184